EA3CY Weather Reports


Display with metric or nautical units.
time (UTC)temp
F
wind
direction
speed
MPH
gust
MPH
rain 1hr
in
rain 24hr
in
rain mn
in
humidity
%
barometer
mb
20260507104844 67 60 6.0 13.0 0.00 0.00 0.00 72 1015.1
20260507104336 67 142 7.0 14.0 0.00 0.00 0.00 71 1015.2
20260507103839 67 62 6.0 13.0 0.00 0.00 0.00 72 1015.1
20260507103330 67 97 6.0 13.0 0.00 0.00 0.00 71 1015.1
20260507102836 66 117 6.0 13.0 0.00 0.00 0.00 73 1015.0
20260507101835 67 115 6.0 14.0 0.00 0.00 0.00 73 1015.2
20260507101345 67 87 5.0 14.0 0.00 0.00 0.00 74 1015.2
20260507100830 66 88 4.0 12.0 0.00 0.00 0.00 75 1015.2
20260507100341 66 111 7.0 12.0 0.00 0.00 0.00 75 1015.3
20260507095839 66 98 5.0 10.0 0.00 0.00 0.00 76 1015.2
20260507095331 66 63 5.0 10.0 0.00 0.00 0.00 76 1015.3
20260507094834 66 96 5.0 11.0 0.00 0.00 0.00 76 1015.2
20260507094330 66 68 9.0 11.0 0.00 0.00 0.00 76 1015.4
20260507093836 66 28 6.0 10.0 0.00 0.00 0.00 77 1015.3
20260507093349 66 67 4.0 11.0 0.00 0.00 0.00 76 1015.2
20260507092834 66 61 6.0 12.0 0.00 0.00 0.00 76 1015.2
20260507092346 66 50 6.0 12.0 0.00 0.00 0.00 76 1015.2
20260507091340 66 80 5.0 9.0 0.00 0.00 0.00 74 1015.3
20260507090847 66 38 5.0 10.0 0.00 0.00 0.00 76 1015.2
20260507090338 65 73 6.0 10.0 0.00 0.00 0.00 76 1015.2
20260507085836 65 56 3.0 10.0 0.00 0.00 0.00 75 1015.2
20260507085331 65 100 4.0 11.0 0.00 0.00 0.00 76 1015.2
20260507084833 65 54 4.0 10.0 0.00 0.00 0.00 76 1015.2
20260507083847 65 63 4.0 9.0 0.00 0.00 0.00 76 1015.1
20260507083339 65 64 4.0 10.0 0.00 0.00 0.00 77 1015.2
20260507082338 64 75 5.0 11.0 0.00 0.00 0.00 78 1015.1
20260507081339 64 35 4.0 9.0 0.00 0.00 0.00 78 1015.1
20260507080844 64 100 4.0 16.0 0.00 0.00 0.00 77 1015.0
20260507080334 64 96 6.0 16.0 0.00 0.00 0.00 78 1015.1
20260507075831 64 64 5.0 8.0 0.00 0.00 0.00 78 1015.0
20260507075343 64 88 3.0 8.0 0.00 0.00 0.00 80 1015.0
20260507074848 64 48 3.0 10.0 0.00 0.00 0.00 80 1015.0
20260507074340 64 74 6.0 10.0 0.00 0.00 0.00 79 1015.0
20260507073343 64 37 4.0 11.0 0.00 0.00 0.00 80 1014.9
20260507072848 63 48 6.0 8.0 0.00 0.00 0.00 79 1014.9
20260507072341 63 75 5.0 9.0 0.00 0.00 0.00 80 1014.9
20260507071847 63 17 4.0 7.0 0.00 0.00 0.00 81 1014.9
20260507071339 63 57 4.0 8.0 0.00 0.00 0.00 81 1014.9
20260507070828 63 40 5.0 10.0 0.00 0.00 0.00 82 1014.9
20260507070342 63 67 5.0 10.0 0.00 0.00 0.00 82 1015.0
20260507065839 63 69 5.0 11.0 0.00 0.00 0.00 82 1014.9
20260507065349 63 77 3.0 10.0 0.00 0.00 0.00 83 1014.9
20260507064833 63 34 6.0 10.0 0.00 0.00 0.00 83 1014.9
20260507064328 63 36 4.0 8.0 0.00 0.00 0.00 83 1015.0
20260507063833 63 28 3.0 8.0 0.00 0.00 0.00 84 1015.0
20260507063345 63 75 3.0 8.0 0.00 0.00 0.00 84 1015.0
20260507062832 62 67 2.0 8.0 0.00 0.00 0.00 85 1014.9
20260507062345 62 32 4.0 9.0 0.00 0.00 0.00 85 1015.0
20260507061832 62 59 3.0 8.0 0.00 0.00 0.00 85 1015.0
20260507060342 61 48 2.0 4.0 0.00 0.00 0.00 86 1014.9
20260507055330 60 51 2.0 6.0 0.00 0.00 0.00 87 1014.8
20260507054838 59 2 0.0 1.0 0.00 0.00 0.00 84 1014.8
20260507054331 59 2 0.0 2.0 0.00 0.00 0.00 84 1014.6
20260507053835 59 2 0.0 2.0 0.00 0.00 0.00 86 1014.6
20260507053332 58 7 0.0 3.0 0.00 0.00 0.00 86 1014.5
20260507052839 57 350 1.0 3.0 0.00 0.00 0.00 85 1014.5
20260507052332 57 298 0.0 0.0 0.00 0.00 0.00 85 1014.5
20260507051838 57 298 0.0 0.0 0.00 0.00 0.00 84 1014.4
20260507051349 57 298 0.0 0.0 0.00 0.00 0.00 84 1014.3
20260507050836 57 298 0.0 0.0 0.00 0.00 0.00 84 1014.2
20260507050347 57 298 0.0 0.0 0.00 0.00 0.00 84 1014.3
20260507045843 57 298 0.0 0.0 0.00 0.00 0.00 84 1014.1
20260507045334 57 298 0.0 0.0 0.00 0.00 0.00 83 1014.0
20260507044841 57 298 0.0 0.0 0.00 0.00 0.00 83 1014.0
20260507044333 57 298 0.0 0.0 0.00 0.00 0.00 83 1014.0
20260507043838 57 298 0.0 0.0 0.00 0.00 0.00 83 1014.1
20260507043331 57 298 0.0 0.0 0.00 0.00 0.00 83 1014.1
20260507042838 57 298 0.0 0.0 0.00 0.00 0.00 83 1014.1
20260507042331 57 298 0.0 0.0 0.00 0.00 0.00 83 1014.2
20260507041835 57 298 0.0 0.0 0.00 0.00 0.00 83 1014.2
20260507041346 57 298 0.0 0.0 0.00 0.00 0.00 82 1014.2
20260507040835 57 298 0.0 0.0 0.00 0.00 0.00 82 1014.2
20260507040346 57 298 0.0 0.0 0.00 0.00 0.00 82 1014.2
20260507035843 57 298 0.0 0.0 0.00 0.00 0.00 82 1014.1
20260507034845 57 298 0.0 0.0 0.00 0.00 0.00 81 1014.1
20260507034338 57 298 0.0 0.0 0.00 0.00 0.00 81 1014.2
20260507033845 57 298 0.0 0.0 0.00 0.00 0.00 80 1014.1
20260507033336 57 298 0.0 0.0 0.00 0.00 0.00 80 1014.1
20260507032841 57 298 0.0 0.0 0.00 0.00 0.00 80 1014.0
20260507032331 57 298 0.0 0.0 0.00 0.00 0.00 80 1014.0
20260507031837 57 298 0.0 0.0 0.00 0.00 0.00 80 1014.0
20260507031349 57 298 0.0 0.0 0.00 0.00 0.00 79 1014.0
20260507030348 57 298 0.0 0.0 0.00 0.00 0.00 79 1014.0
20260507025845 57 298 0.0 0.0 0.00 0.00 0.00 79 1013.9
20260507025338 57 298 0.0 0.0 0.00 0.00 0.00 79 1014.0
20260507024843 57 298 0.0 0.0 0.00 0.00 0.00 79 1013.9
20260507024333 57 298 0.0 0.0 0.00 0.00 0.00 79 1013.9
20260507023331 57 298 0.0 0.0 0.00 0.00 0.00 79 1013.9
20260507022837 57 298 0.0 0.0 0.00 0.00 0.00 79 1013.9
20260507022333 57 298 0.0 0.0 0.00 0.00 0.00 79 1013.8
20260507021840 57 298 0.0 0.0 0.00 0.00 0.00 79 1013.7
20260507021332 57 298 0.0 0.0 0.00 0.00 0.00 79 1013.7
20260507020840 57 298 0.0 0.0 0.00 0.00 0.00 80 1013.7
20260507020331 57 298 0.0 0.0 0.00 0.00 0.00 80 1013.7
20260507015846 57 298 0.0 0.0 0.00 0.00 0.00 80 1013.7
20260507015338 57 298 0.0 0.0 0.00 0.00 0.00 80 1013.8
20260507014334 57 298 0.0 0.0 0.00 0.00 0.00 80 1013.8
20260507013837 57 298 0.0 0.0 0.00 0.00 0.00 80 1013.8
20260507013330 57 298 0.0 0.0 0.00 0.00 0.00 79 1013.9
20260507012839 57 298 0.0 0.0 0.00 0.00 0.00 79 1013.9
20260507012349 57 298 0.0 0.0 0.00 0.00 0.00 78 1014.0
20260507011346 58 298 0.0 0.0 0.00 0.00 0.00 76 1014.0
20260507010833 58 298 0.0 0.0 0.00 0.00 0.00 76 1014.0
20260507005844 58 298 0.0 0.0 0.00 0.00 0.00 77 1013.9
20260507005336 58 298 0.0 0.0 0.00 0.00 0.00 78 1014.0
20260507004844 57 298 0.0 0.0 0.00 0.00 0.00 78 1014.0
20260507004335 58 298 0.0 0.0 0.00 0.00 0.00 78 1014.0
20260507003839 58 298 0.0 0.0 0.00 0.00 0.00 78 1014.0
20260507003333 58 298 0.0 0.0 0.00 0.00 0.00 77 1014.0
20260507002840 58 298 0.0 0.0 0.00 0.00 0.00 77 1013.9
20260507002331 58 298 0.0 0.0 0.00 0.00 0.00 76 1013.9
20260507001838 58 298 0.0 0.0 0.00 0.00 0.00 76 1014.0
20260507001349 59 298 0.0 2.0 0.00 0.00 0.00 75 1014.0
20260507000833 59 298 1.0 2.0 0.00 0.00 0.00 74 1014.1
20260506235844 59 303 0.0 2.0 0.00 0.00 0.00 74 1014.2
20260506234843 59 303 0.0 2.0 0.00 0.00 0.00 75 1014.2
20260506233841 59 299 1.0 4.0 0.00 0.00 0.00 76 1014.3
20260506233332 59 296 2.0 4.0 0.00 0.00 0.00 76 1014.3
20260506232840 59 292 2.0 4.0 0.00 0.00 0.00 76 1014.3
20260506232331 59 292 1.0 4.0 0.00 0.00 0.00 76 1014.3
20260506231835 59 292 2.0 4.0 0.00 0.00 0.00 77 1014.4
20260506231330 59 296 1.0 5.0 0.00 0.00 0.00 77 1014.4
20260506230834 59 294 2.0 5.0 0.00 0.00 0.00 77 1014.4
20260506230344 59 299 2.0 5.0 0.00 0.00 0.00 77 1014.4
20260506225841 59 296 1.0 5.0 0.00 0.00 0.00 77 1014.4
20260506225332 59 292 1.0 6.0 0.00 0.00 0.00 77 1014.4
20260506224838 59 292 2.0 6.0 0.00 0.00 0.00 77 1014.4
20260506224328 59 288 0.0 0.0 0.00 0.00 0.00 77 1014.4
20260506223838 59 288 0.0 0.0 0.00 0.00 0.00 78 1014.3
20260506222838 59 286 0.0 0.0 0.00 0.00 0.00 79 1014.3
20260506222334 59 283 0.0 0.0 0.00 0.00 0.00 79 1014.3
20260506221842 59 281 0.0 0.0 0.00 0.00 0.00 80 1014.3
20260506221334 59 279 0.0 0.0 0.00 0.00 0.00 80 1014.3
20260506220840 59 276 0.0 0.0 0.00 0.00 0.00 80 1014.3
20260506220331 59 277 0.0 0.0 0.00 0.00 0.00 80 1014.3
20260506215843 59 274 0.0 0.0 0.00 0.00 0.00 80 1014.2
20260506215336 59 273 0.0 0.0 0.00 0.00 0.00 80 1014.3
20260506214844 59 272 0.0 0.0 0.00 0.00 0.00 79 1014.3
20260506214335 59 271 0.0 0.0 0.00 0.00 0.00 79 1014.3
20260506213839 60 271 0.0 0.0 0.00 0.00 0.00 79 1014.2
20260506212837 60 276 0.0 0.0 0.00 0.00 0.00 78 1014.2
20260506211837 60 276 0.0 0.0 0.00 0.00 0.00 76 1014.2
20260506211330 61 276 0.0 0.0 0.00 0.00 0.00 75 1014.2
20260506210836 61 276 0.0 0.0 0.00 0.00 0.00 75 1014.1
20260506210348 61 276 0.0 0.0 0.00 0.00 0.00 74 1014.1
20260506205842 61 276 0.0 0.0 0.00 0.00 0.00 74 1014.1
20260506205332 61 276 0.0 0.0 0.00 0.00 0.00 74 1014.1
20260506204839 61 218 0.0 0.0 0.00 0.00 0.00 74 1014.1
20260506204331 61 212 0.0 0.0 0.00 0.00 0.00 74 1014.1
20260506203837 62 212 0.0 0.0 0.00 0.00 0.00 74 1014.1
20260506203330 62 212 0.0 0.0 0.00 0.00 0.00 73 1014.0
20260506202837 62 211 0.0 0.0 0.00 0.00 0.00 73 1014.1
20260506202348 62 211 0.0 0.0 0.00 0.00 0.00 73 1014.0
20260506201842 62 211 0.0 0.0 0.00 0.00 0.00 73 1013.8
20260506201330 62 211 0.0 0.0 0.00 0.00 0.00 73 1013.8
20260506200834 62 211 0.0 0.0 0.00 0.00 0.00 73 1013.7
20260506200341 62 211 0.0 0.0 0.00 0.00 0.00 73 1013.6
20260506195836 62 211 0.0 0.0 0.00 0.00 0.00 73 1013.6
20260506194840 63 210 0.0 0.0 0.00 0.00 0.00 72 1013.4
20260506194330 63 209 0.0 0.0 0.00 0.00 0.00 72 1013.4
20260506193832 63 209 0.0 0.0 0.00 0.00 0.00 72 1013.4
20260506193340 63 209 0.0 0.0 0.00 0.00 0.00 72 1013.2
20260506192845 63 198 0.0 0.0 0.00 0.00 0.00 71 1013.2
20260506192336 63 198 0.0 0.0 0.00 0.00 0.00 71 1013.2
20260506191842 63 198 0.0 0.0 0.00 0.00 0.00 71 1013.1
20260506191332 63 198 0.0 0.0 0.00 0.00 0.00 71 1013.0
20260506190838 63 198 0.0 0.0 0.00 0.00 0.00 70 1013.0
20260506190348 63 198 0.0 0.0 0.00 0.00 0.00 70 1012.9
20260506185843 64 198 0.0 0.0 0.00 0.24 0.00 70 1012.9
20260506184841 64 198 1.0 4.0 0.00 0.24 0.00 69 1012.8
20260506184331 64 198 1.0 7.0 0.00 0.24 0.00 69 1012.7
20260506183330 64 188 2.0 7.0 0.00 0.24 0.00 68 1012.6
20260506182835 65 186 3.0 7.0 0.00 0.24 0.00 68 1012.6
20260506182347 65 194 3.0 6.0 0.00 0.24 0.00 68 1012.5
20260506181346 65 192 4.0 7.0 0.00 0.24 0.00 68 1012.5
20260506180830 65 169 4.0 7.0 0.00 0.24 0.00 67 1012.5
20260506180329 65 184 2.0 8.0 0.00 0.24 0.00 67 1012.4
20260506175843 65 171 4.0 8.0 0.00 0.24 0.00 67 1012.3
20260506175337 66 144 5.0 8.0 0.00 0.24 0.00 66 1012.3
20260506174843 66 184 4.0 8.0 0.00 0.24 0.00 66 1012.3
20260506174334 66 153 5.0 8.0 0.00 0.24 0.00 66 1012.2
20260506173843 66 182 3.0 7.0 0.00 0.24 0.00 66 1012.1
20260506173333 66 178 4.0 7.0 0.00 0.24 0.00 65 1012.2
20260506172838 67 163 2.0 8.0 0.00 0.24 0.00 64 1012.2
20260506172331 67 184 0.0 0.0 0.00 0.24 0.00 64 1012.1
20260506171837 67 183 0.0 0.0 0.00 0.24 0.00 64 1012.1
20260506171330 67 196 0.0 0.0 0.00 0.24 0.00 63 1012.1
20260506170349 67 204 0.0 0.0 0.00 0.24 0.00 64 1012.2
20260506165844 66 204 0.0 0.0 0.00 0.24 0.00 64 1012.2
20260506165335 66 196 0.0 0.0 0.00 0.24 0.00 64 1012.2
20260506164334 66 188 0.0 0.0 0.00 0.24 0.00 65 1012.3
20260506163331 66 186 0.0 0.0 0.00 0.24 0.00 64 1012.5
20260506162836 66 186 0.0 0.0 0.00 0.24 0.00 64 1012.5
20260506162348 66 180 0.0 8.0 0.00 0.24 0.00 64 1012.5
20260506161830 66 180 3.0 9.0 0.00 0.24 0.00 64 1012.5
20260506161341 66 167 4.0 9.0 0.00 0.24 0.00 63 1012.5
20260506160339 67 175 3.0 9.0 0.00 0.24 0.00 61 1012.5
20260506155834 67 209 2.0 10.0 0.00 0.24 0.00 61 1012.5
20260506155347 67 151 4.0 8.0 0.00 0.24 0.00 61 1012.5
20260506154833 67 167 0.0 5.0 0.00 0.24 0.00 60 1012.6
20260506154345 67 204 0.0 7.0 0.00 0.24 0.00 59 1012.7
20260506153848 67 198 4.0 8.0 0.00 0.24 0.00 60 1012.7
20260506153339 67 179 4.0 8.0 0.00 0.24 0.00 58 1012.8
20260506152845 67 192 4.0 9.0 0.00 0.24 0.00 55 1012.8
20260506152336 67 192 5.0 9.0 0.00 0.24 0.00 55 1012.7
20260506151840 67 167 2.0 8.0 0.00 0.24 0.00 55 1012.7
20260506151332 67 163 3.0 8.0 0.00 0.24 0.00 55 1012.7
20260506150840 67 178 4.0 8.0 0.00 0.24 0.00 55 1012.8
20260506150333 67 185 4.0 8.0 0.00 0.24 0.00 59 1012.8
20260506145831 67 199 5.0 8.0 0.00 0.24 0.00 59 1012.8
20260506145343 67 169 5.0 10.0 0.00 0.24 0.00 58 1012.8
20260506143835 67 172 4.0 10.0 0.00 0.24 0.00 60 1012.8
20260506143346 67 167 5.0 10.0 0.00 0.24 0.00 59 1012.9
20260506142831 67 163 5.0 10.0 0.00 0.24 0.00 60 1012.9
20260506142341 67 88 5.0 9.0 0.00 0.24 0.00 60 1013.0
20260506141343 67 170 5.0 9.0 0.00 0.24 0.00 60 1013.0
20260506140832 68 133 5.0 9.0 0.00 0.24 0.00 58 1013.0
20260506140344 68 155 2.0 8.0 0.00 0.24 0.00 60 1013.1
20260506135840 67 178 4.0 10.0 0.00 0.24 0.00 59 1013.1
20260506134841 67 102 5.0 11.0 0.00 0.24 0.00 59 1013.2
20260506134331 68 140 4.0 9.0 0.00 0.24 0.00 55 1013.1
20260506133836 68 132 5.0 10.0 0.00 0.24 0.00 55 1013.2
20260506133331 68 150 4.0 8.0 0.00 0.24 0.00 53 1013.1
20260506132838 69 152 4.0 8.0 0.00 0.24 0.00 52 1013.0
20260506132330 69 182 0.0 7.0 0.00 0.24 0.00 51 1013.1
20260506131836 69 180 3.0 8.0 0.00 0.24 0.00 51 1013.0
20260506131346 68 150 2.0 9.0 0.00 0.24 0.00 53 1013.1
20260506130833 68 161 5.0 11.0 0.00 0.24 0.00 52 1013.1
20260506130345 69 122 5.0 11.0 0.00 0.24 0.00 52 1013.2
20260506125840 68 144 4.0 11.0 0.00 0.24 0.00 53 1013.1
20260506125332 68 163 5.0 11.0 0.00 0.24 0.00 52 1013.2
20260506124840 68 156 3.0 10.0 0.00 0.24 0.00 53 1013.3
20260506123841 68 157 4.0 10.0 0.00 0.24 0.00 52 1013.3
20260506123333 68 140 5.0 9.0 0.00 0.24 0.00 51 1013.3
20260506122839 68 143 4.0 7.0 0.00 0.24 0.00 51 1013.4
20260506121836 68 113 5.0 11.0 0.00 0.24 0.00 50 1013.4
20260506121328 68 144 4.0 10.0 0.00 0.24 0.00 50 1013.4
20260506120837 68 153 5.0 13.0 0.00 0.24 0.00 51 1013.4
20260506120330 69 125 5.0 13.0 0.00 0.24 0.00 51 1013.4
20260506115335 68 143 8.0 12.0 0.00 0.24 0.00 51 1013.5
20260506114333 68 61 2.0 13.0 0.00 0.24 0.00 52 1013.7
20260506113840 67 105 5.0 13.0 0.00 0.24 0.00 52 1013.6
20260506113333 68 66 4.0 12.0 0.00 0.24 0.00 52 1013.7
20260506112838 68 155 8.0 11.0 0.00 0.24 0.00 52 1013.7
20260506112332 68 46 0.0 8.0 0.00 0.24 0.00 51 1013.8
20260506111838 68 130 4.0 10.0 0.00 0.24 0.00 51 1013.8
20260506110838 67 68 0.0 7.0 0.00 0.24 0.00 52 1013.9
20260506105845 66 161 5.0 10.0 0.00 0.24 0.00 54 1013.9
20260506105336 66 135 4.0 10.0 0.00 0.24 0.00 55 1014.0